Regional Weather Roundup
Issued by NWS

Home | Current Version | Previous Version | Graphics & Text | Print | Product List | Glossary On
Versions: 1 2 3 4 5 6 7 8 9 10 11 12 13 14 15 16 17 18 19 20 21 22 23 24 25 26 27 28 29 30 31 32 33 34 35 36 37 38 39 40 41 42 43 44 45 46 47 48 49 50
000
ASUS43 KMPX 271301
RWRMN
WEATHER ROUNDUP FOR MINNESOTA
NATIONAL WEATHER SERVICE TWIN CITIES/CHANHASSEN MN
800 AM CDT FRI MAR 27 2015


NOTE: "FAIR" INDICATES FEW OR NO CLOUDS BELOW 12,000 FEET WITH NO
SIGNIFICANT WEATHER AND/OR OBSTRUCTIONS TO VISIBILITY. N/A MEANS
CURRENT SKY AND/OR WEATHER CONDITIONS ARE NOT AVAILABLE.

MNZ060>063-068>070-271400-
   Twin Cities Metro

CITY           SKY/WX    TMP DP  RH WIND       PRES   REMARKS
TWIN CITIES    CLEAR     20   5  52 N5        30.29R WCI  13
ST PAUL        CLEAR     20   5  52 N7        30.31R WCI  11
CRYSTAL        CLEAR     19   6  57 N3        30.28S
LAKEVILLE      CLEAR     16   3  57 CALM      30.28R
EDEN PRAIRIE   CLEAR     19   4  51 NE5       30.27R WCI  12
SOUTH ST PAUL  CLEAR     21   6  51 N5        30.29S WCI  15
LAKE ELMO      FAIR      19   9  63 N3        30.29S
$$
MNZ001>005-007-008-013>017-022>024-027-028-271400-
   Northwest Minnesota

CITY           SKY/WX    TMP DP  RH WIND       PRES   REMARKS
BEMIDJI        CLEAR      7   3  85 CALM      30.23S
HALLOCK        PTCLDY    16   9  73 S6        30.23S WCI   7
ROSEAU         CLEAR     16  10  79 S3        30.23F
WARROAD        CLEAR     16   9  73 S5        30.24S WCI   9
THIEF RVR FALL CLEAR     16  10  79 S6        30.23F WCI   7
CROOKSTON      PTCLDY    14  10  85 S5        30.26F WCI   6
FOSSTON        CLEAR      9   3  78 CALM      30.24S
DETROIT LAKES  CLEAR     12  10  92 CALM      30.25S
MOORHEAD       PTCLDY    16  14  93 CALM      30.27S
PARK RAPIDS    CLEAR      9   3  77 CALM      30.23S
MAHNOMEN       FAIR       9   4  81 SE5       30.24S WCI   1
$$
MNZ006-009>011-018-025>026-271400-
   North Central Minnesota

CITY           SKY/WX    TMP DP  RH WIND       PRES   REMARKS
BAUDETTE       CLEAR     10   5  80 SE3       30.23S
FLAG ISLAND    CLEAR      9   3  78 CALM      30.23S
INTL FALLS     CLEAR      7   3  84 CALM      30.25S
WASKISH        CLEAR      9   7  92 CALM      30.24F
BIG FORK       CLEAR      7   3  85 CALM      30.25S
LONGVILLE      CLEAR      7   5  92 CALM      30.25F
GRAND RAPIDS   CLEAR      9   3  78 CALM      30.24S
CRANE LAKE     CLEAR      1   0  92 SE1       30.29S
ORR            CLEAR      1  -4  78 CALM      30.22F
COOK           CLEAR      3   1  92 CALM      30.26S
WALKER         FAIR       5   1  86 CALM      30.24F
$$
MNZ012-019>021-037-271400-
   Northeast Minnesota

CITY           SKY/WX    TMP DP  RH WIND       PRES   REMARKS
DULUTH         PTCLDY    13   3  64 N6        30.24R WCI   4
ELY            CLEAR      3   0  85 CALM      30.25S
HIBBING        CLEAR      8   2  76 CALM      30.25S
EVELETH        CLEAR      7   3  85 CALM      30.25F
DULUTH HARBOR  CLEAR     19   9  63 CALM      30.31S
TWO HARBORS    CLEAR     18   5  57 N3        30.25S
SILVER BAY     SUNNY     12   3  67 CALM      30.25S
GRAND MARAIS     N/A     13  -2  51 CALM      30.32R
G MARAIS ARPRT SUNNY      3  -8  60 N5        30.20R WCI  -6
$$
MNZ029>031-032-039>041-046>048-054>057-064-271400-
   West Central Minnesota

CITY           SKY/WX    TMP DP  RH WIND       PRES   REMARKS
FERGUS FALLS   CLEAR     16   9  73 SE3       30.30S
WHEATON        PTCLDY    16  12  86 CALM      30.29F
MORRIS         CLEAR     14  10  85 CALM      30.26F
ALEXANDRIA     CLEAR     15   8  73 CALM      30.26R
ELBOW LAKE     FAIR      12  10  90 CALM      30.26F
WADENA         CLEAR      9   3  78 CALM      30.24F
GLENWOOD       CLEAR     16   7  67 CALM      30.27R
APPLETON       CLEAR     16  12  86 CALM      30.28F
BENSON         CLEAR     12  10  92 CALM      30.28S
ORTONVILLE     CLEAR     16  12  86 CALM      30.27F
MADISON        CLEAR     16  12  86 CALM      30.29S
WILLMAR        FAIR      16   3  57 NE3       30.28R
$$
MNZ033>034-036-042>043-049>051-058-059-271400-
   Central Minnesota

CITY           SKY/WX    TMP DP  RH WIND       PRES   REMARKS
ST CLOUD       CLEAR     15   9  76 CALM      30.28S
SAUK CENTRE    FAIR      11   6  79 CALM      30.27R
PAYNESVILLE    CLEAR      6   3  89 CALM      30.28S
AITKIN         CLEAR     14   9  79 CALM      30.26S
PINE RIVER     CLEAR      9   3  78 CALM      30.28S
BRAINERD       CLEAR      9   6  88 CALM      30.27S
STAPLES        CLEAR      9   3  78 CALM      30.25S
LONG PRAIRIE   FAIR      12   9  85 CALM      30.26S
LITTLE FALLS   CLEAR     10   7  85 CALM      30.28R
LITCHFIELD     FAIR      14  10  85 CALM      30.28S
MAPLE LAKE     CLEAR     15  11  83 CALM      30.28S
$$
MNZ037-044-045-052-053-271400-
   East Central Minnesota

CITY           SKY/WX    TMP DP  RH WIND       PRES   REMARKS
PRINCETON      CLEAR     16   7  67 CALM      30.28S
MORA           CLEAR     18   5  57 CALM      30.29F
CAMBRIDGE      CLEAR     16   7  67 CALM      30.27F
RUSH CITY      CLEAR     16   8  68 N3        30.29S
MOOSE LAKE     CLEAR     12   3  67 CALM      30.27S
HINCKLEY       FAIR      16   7  67 CALM      30.28S
CLOQUET        CLEAR     10   3  72 NW3       30.25F
MCGREGOR       CLEAR     12   9  85 CALM      30.27F
$$
MNZ071>073-080-081-089-090-097-098-271400-
   Southwest Minnesota

CITY           SKY/WX    TMP DP  RH WIND       PRES   REMARKS
MONTEVIDEO     CLEAR     19  14  79 CALM      30.29F
GRANITE FALLS  CLEAR     14  12  90 CALM      30.31R
CANBY          CLEAR     15  11  84 W3        30.29S
MARSHALL       CLEAR     16   9  73 W6        30.28S WCI   7
REDWOOD FALLS  CLEAR     19   7  59 CALM      30.28S
OLIVIA         CLEAR     14   9  79 CALM      30.28R
PIPESTONE      CLEAR     14  10  85 CALM      30.24S
WINDOM         CLEAR     16  12  86 CALM      30.26R
WORTHINGTON    CLEAR     18   9  68 NW7       30.26R WCI   8
JACKSON        CLEAR     18  10  73 NW5       30.25S WCI  11
TRACY          CLEAR     17  13  82 NW6       30.27S WCI   9
SLAYTON        CLEAR     14  11  86 CALM      30.26S
$$
MNZ065>067-074>077-082>085-091>093-271400-
   South Central Minnesota

CITY           SKY/WX    TMP DP  RH WIND       PRES   REMARKS
MANKATO        CLEAR     18   5  57 NE8       30.27S WCI   7
NEW ULM        CLEAR     18   7  62 CALM      30.27S
ST JAMES       CLEAR     19  12  73 CALM      30.28R
FAIRMONT       FAIR      18  10  73 N5        30.25R WCI  11
GLENCOE        CLEAR     13   9  84 CALM      30.27F
FARIBAULT      CLEAR     12   7  79 CALM      30.27R
OWATONNA       CLEAR     10   3  72 CALM      30.26R
WASECA         CLEAR     12   5  73 N6        30.27S WCI   3
ALBERT LEA     CLEAR     18   9  68 N5        30.25R WCI  11
$$
MNZ078>079-086>088-094>096-271400-
   Southeast Minnesota

CITY           SKY/WX    TMP DP  RH WIND       PRES   REMARKS
ROCHESTER      CLEAR     13   4  67 NW7       30.24R WCI   3
RED WING       CLEAR     21   7  53 CALM      30.28R
STANTON        CLEAR     10   6  82 SW3       30.27R
DODGE CENTER   PTCLDY    16   5  62 N5        30.24R WCI   9
WINONA         SUNNY     21  14  73 NW6       30.28R WCI  14
AUSTIN         CLEAR     14   5  67 N3        30.24S
PRESTON        SUNNY     14   7  72 N3        30.23S
$$
ABBREVIATIONS USED IN REMARKS
   TC - TEMPERATURES IN CELSIUS
  WCI - WIND CHILL INDEX
   HX - HEAT INDEX
  VSB - VISIBILITY
$$



USA.gov is the U.S. government's official web portal to all federal, state and local government web resources and services.